TimeEST,TemperatureF,Dew PointF,Humidity,Sea Level PressureIn,VisibilityMPH,Wind Direction,Wind SpeedMPH,Gust SpeedMPH,PrecipitationIn,Events,Conditions,WindDirDegrees,DateUTC
12:53 AM,57.9,39.0,49,30.12,10.0,NNW,19.6,26.5,N/A,,Mostly Cloudy,330,2013-02-17 05:53:00
1:53 AM,55.0,39.0,55,30.14,10.0,North,10.4,-,N/A,,Mostly Cloudy,10,2013-02-17 06:53:00
2:53 AM,51.1,30.9,46,30.15,10.0,NNE,19.6,29.9,N/A,,Partly Cloudy,20,2013-02-17 07:53:00
3:53 AM,48.0,27.0,44,30.18,10.0,North,13.8,25.3,N/A,,Clear,10,2013-02-17 08:53:00
4:53 AM,46.0,23.0,40,30.19,10.0,NNE,13.8,21.9,N/A,,Clear,20,2013-02-17 09:53:00
5:53 AM,44.1,21.9,42,30.23,10.0,NE,13.8,-,N/A,,Clear,40,2013-02-17 10:53:00
7:53 AM,45.0,18.0,34,30.27,10.0,NNE,15.0,-,N/A,,Clear,30,2013-02-17 12:53:00
8:53 AM,46.9,18.0,32,30.30,10.0,NE,16.1,-,N/A,,Clear,40,2013-02-17 13:53:00
9:53 AM,50.0,18.0,28,30.32,10.0,NNE,15.0,23.0,N/A,,Clear,30,2013-02-17 14:53:00
10:53 AM,51.1,21.0,31,30.32,10.0,NNE,15.0,20.7,N/A,,Clear,30,2013-02-17 15:53:00
11:53 AM,53.1,23.0,31,30.32,10.0,North,10.4,20.7,N/A,,Clear,10,2013-02-17 16:53:00
12:53 PM,55.0,21.9,28,30.31,10.0,North,10.4,20.7,N/A,,Clear,10,2013-02-17 17:53:00
1:53 PM,57.0,19.9,24,30.28,10.0,North,9.2,17.3,N/A,,Clear,360,2013-02-17 18:53:00
2:53 PM,57.9,19.9,23,30.27,10.0,North,10.4,-,N/A,,Clear,350,2013-02-17 19:53:00
3:53 PM,59.0,19.0,21,30.27,10.0,North,9.2,17.3,N/A,,Clear,10,2013-02-17 20:53:00
4:53 PM,57.9,19.0,22,30.27,10.0,Variable,4.6,-,N/A,,Clear,0,2013-02-17 21:53:00
5:53 PM,55.9,17.1,22,30.27,10.0,North,5.8,-,N/A,,Clear,350,2013-02-17 22:53:00
6:53 PM,51.1,24.1,35,30.29,10.0,ENE,3.5,-,N/A,,Clear,70,2013-02-17 23:53:00
7:53 PM,48.9,27.0,43,30.30,10.0,ENE,3.5,-,N/A,,Clear,70,2013-02-18 00:53:00
8:53 PM,46.9,26.1,44,30.31,10.0,ENE,5.8,-,N/A,,Clear,70,2013-02-18 01:53:00
9:53 PM,46.0,27.0,47,30.33,10.0,East,4.6,-,N/A,,Clear,80,2013-02-18 02:53:00
10:53 PM,44.1,26.1,49,30.34,10.0,East,3.5,-,N/A,,Clear,80,2013-02-18 03:53:00